Terug naar catalogus

NIMBUS 2 DEB

ActiefLEO
NORAD 38182·DEBRIS·🇺🇸 United States

Gelanceerd May 15, 1966 vanaf Vandenberg Space Force Base

Loading…

Volgende Passages (komende 24 uur)

TLE

VersSource: Space-Track

Epoch: Sep 12, 2026, 22:46 UTC

1 38182U 66040BA  26255.94871940  .00003142  00000-0  41003-2 0  9990
2 38182 100.4904 318.3504 0081490 145.7857  32.9874 13.61233668619182

Volg NIMBUS 2 DEB in realtime met AllMySat

Download on the App Store